Location: Unspecified
(49.2170°N, 0.0000°E)
Time: 11:44:20
(UTC+00:00)

Transit 2A - Pass Details

Date: 25 June 2019
Orbit: 596 x 962 km, 66.7° (Epoch: 16 August)

Event Time Altitude Azimuth Distance (km) Brightness Sun altitude
Rises 03:56:24 0° 301° (WNW) 3,616 9.3 -0.7°
Reaches altitude 10° 04:00:24 10° 325° (NW) 2,623 8.8 -0.2°
Maximum altitude 04:03:35 14° 357° (N) 2,273 9.0 0.2°
Drops below altitude 10° 04:06:40 10° 29° (NNE) 2,515 10.0 0.6°
Sets 04:10:22 0° 54° (NE) 3,369 14.1 1.1°
